| time (UTC) | temp C | wind direction | speed KPH | gust KPH | rain 1hr cm | rain 24hr cm | rain mn cm | humidity % | barometer mb |
| 20260506134020 | 24 | 0.0 | 0.0 | 0.00 | 0.00 | 0.00 | 52 | 1008.7 | |
| 20260506133017 | 23 | 0.0 | 0.0 | 0.00 | 0.00 | 0.00 | 58 | 1008.7 | |
| 20260506132034 | 21 | 0.0 | 0.0 | 0.00 | 0.00 | 0.00 | 64 | 1008.4 | |
| 20260506131101 | 18 | 0.0 | 0.0 | 0.00 | 0.00 | 0.00 | 66 | 1008.7 | |
| 20260506130025 | 20 | 0.0 | 0.0 | 0.00 | 0.00 | 0.00 | 63 | 1008.4 | |
| 20260506125022 | 21 | 0.0 | 0.0 | 0.00 | 0.00 | 0.00 | 60 | 1008.7 | |
| 20260506124019 | 22 | 0.0 | 0.0 | 0.00 | 0.00 | 0.00 | 57 | 1008.9 | |
| 20260506123016 | 21 | 0.0 | 0.0 | 0.00 | 0.00 | 0.00 | 62 | 1008.8 | |
| 20260506122030 | 23 | 0.0 | 0.0 | 0.00 | 0.00 | 0.00 | 58 | 1009.0 | |
| 20260506121028 | 23 | 0.0 | 0.0 | 0.00 | 0.00 | 0.00 | 65 | 1008.9 | |
| 20260506120024 | 16 | 0.0 | 0.0 | 0.00 | 0.00 | 0.00 | 81 | 1008.5 | |
| 20260506115021 | 16 | 0.0 | 0.0 | 0.00 | 0.00 | 0.00 | 81 | 1008.9 | |
| 20260506114018 | 16 | 0.0 | 0.0 | 0.00 | 0.00 | 0.00 | 82 | 1008.9 | |
| 20260506113015 | 15 | 0.0 | 0.0 | 0.00 | 0.00 | 0.00 | 86 | 1008.6 | |
| 20260506112028 | 14 | 0.0 | 0.0 | 0.00 | 0.00 | 0.00 | 88 | 1008.6 | |
| 20260506111026 | 13 | 0.0 | 0.0 | 0.00 | 0.00 | 0.00 | 88 | 1008.8 | |
| 20260506110023 | 13 | 0.0 | 0.0 | 0.00 | 0.00 | 0.00 | 88 | 1008.6 | |
| 20260506105040 | 12 | 0.0 | 0.0 | 0.00 | 0.00 | 0.00 | 90 | 1008.6 | |
| 20260506104017 | 12 | 0.0 | 0.0 | 0.00 | 0.00 | 0.00 | 91 | 1008.6 | |
| 20260506103030 | 11 | 0.0 | 0.0 | 0.00 | 0.00 | 0.00 | 91 | 1008.8 | |
| 20260506102028 | 11 | 0.0 | 0.0 | 0.00 | 0.00 | 0.00 | 91 | 1008.8 | |
| 20260506101044 | 11 | 0.0 | 0.0 | 0.00 | 0.00 | 0.00 | 91 | 1008.7 | |
| 20260506100022 | 11 | 0.0 | 0.0 | 0.00 | 0.00 | 0.00 | 91 | 1008.5 | |
| 20260506095019 | 11 | 0.0 | 0.0 | 0.00 | 0.00 | 0.00 | 91 | 1008.5 | |
| 20260506094016 | 11 | 0.0 | 0.0 | 0.00 | 0.00 | 0.00 | 91 | 1008.6 | |
| 20260506093029 | 11 | 0.0 | 0.0 | 0.00 | 0.00 | 0.00 | 90 | 1008.5 | |
| 20260506092046 | 11 | 0.0 | 0.0 | 0.00 | 0.00 | 0.00 | 91 | 1008.5 | |
| 20260506091023 | 12 | 0.0 | 0.0 | 0.00 | 0.00 | 0.00 | 90 | 1008.5 | |
| 20260506090020 | 12 | 0.0 | 0.0 | 0.00 | 0.00 | 0.00 | 90 | 1008.5 | |
| 20260506085039 | 12 | 0.0 | 0.0 | 0.00 | 0.00 | 0.00 | 90 | 1008.5 | |
| 20260506084031 | 12 | 0.0 | 0.0 | 0.00 | 0.00 | 0.00 | 88 | 1008.7 | |
| 20260506083028 | 12 | 0.0 | 0.0 | 0.00 | 0.00 | 0.00 | 88 | 1008.5 | |
| 20260506082025 | 12 | 0.0 | 0.0 | 0.00 | 0.00 | 0.00 | 88 | 1008.9 | |
| 20260506081022 | 12 | 0.0 | 0.0 | 0.00 | 0.00 | 0.00 | 88 | 1008.9 | |
| 20260506073027 | 12 | 0.0 | 0.0 | 0.00 | 0.00 | 0.00 | 88 | 1009.1 | |
| 20260506072024 | 12 | 0.0 | 0.0 | 0.00 | 0.00 | 0.00 | 88 | 1009.3 | |
| 20260506071021 | 12 | 0.0 | 0.0 | 0.00 | 0.00 | 0.00 | 88 | 1009.2 | |
| 20260506062023 | 12 | 0.0 | 0.0 | 0.00 | 0.00 | 0.00 | 86 | 1009.1 | |
| 20260506061020 | 13 | 0.0 | 0.0 | 0.00 | 0.00 | 0.00 | 86 | 1009.0 | |
| 20260506051019 | 13 | 0.0 | 0.0 | 0.00 | 0.00 | 0.00 | 86 | 1009.1 | |
| 20260506045030 | 13 | 0.0 | 0.0 | 0.00 | 0.00 | 0.00 | 86 | 1009.1 | |
| 20260506044027 | 13 | 0.0 | 0.0 | 0.00 | 0.00 | 0.00 | 86 | 1009.1 | |
| 20260506043024 | 13 | 0.0 | 0.0 | 0.00 | 0.00 | 0.00 | 86 | 1009.3 | |
| 20260506042021 | 13 | 0.0 | 0.0 | 0.00 | 0.00 | 0.00 | 86 | 1009.3 | |
| 20260506041018 | 13 | 0.0 | 0.0 | 0.00 | 0.00 | 0.00 | 86 | 1009.5 | |
| 20260506040015 | 13 | 0.0 | 0.0 | 0.00 | 0.00 | 0.00 | 86 | 1009.5 | |
| 20260506035029 | 13 | 0.0 | 0.0 | 0.00 | 0.00 | 0.00 | 86 | 1009.6 | |
| 20260506034026 | 13 | 0.0 | 0.0 | 0.00 | 0.00 | 0.00 | 85 | 1009.5 | |
| 20260506033023 | 13 | 0.0 | 0.0 | 0.00 | 0.00 | 0.00 | 85 | 1009.6 | |
| 20260506032020 | 13 | 0.0 | 0.0 | 0.00 | 0.00 | 0.00 | 85 | 1009.7 | |
| 20260506031017 | 13 | 0.0 | 0.0 | 0.00 | 0.00 | 0.00 | 85 | 1009.5 | |
| 20260506030031 | 13 | 0.0 | 0.0 | 0.00 | 0.00 | 0.00 | 85 | 1009.7 | |
| 20260506025028 | 13 | 0.0 | 0.0 | 0.00 | 0.00 | 0.00 | 86 | 1009.4 | |
| 20260506024025 | 13 | 0.0 | 0.0 | 0.00 | 0.00 | 0.00 | 85 | 1009.7 | |
| 20260506023023 | 13 | 0.0 | 0.0 | 0.00 | 0.00 | 0.00 | 85 | 1009.5 | |
| 20260506022039 | 13 | 0.0 | 0.0 | 0.00 | 0.00 | 0.00 | 83 | 1009.5 | |
| 20260506021133 | 13 | 0.0 | 0.0 | 0.00 | 0.00 | 0.00 | 83 | 1009.5 | |
| 20260506020046 | 13 | 0.0 | 0.0 | 0.00 | 0.00 | 0.00 | 83 | 1009.5 | |
| 20260506015027 | 13 | 0.0 | 0.0 | 0.00 | 0.00 | 0.00 | 81 | 1009.3 | |
| 20260506014041 | 13 | 0.0 | 0.0 | 0.00 | 0.00 | 0.00 | 81 | 1009.1 | |
| 20260506013111 | 14 | 0.0 | 0.0 | 0.00 | 0.00 | 0.00 | 81 | 1009.1 | |
| 20260506012128 | 14 | 0.0 | 0.0 | 0.00 | 0.00 | 0.00 | 80 | 1009.0 | |
| 20260506011139 | 14 | 0.0 | 0.0 | 0.00 | 0.00 | 0.00 | 79 | 1008.8 | |
| 20260506010028 | 15 | 0.0 | 0.0 | 0.00 | 0.00 | 0.00 | 79 | 1008.7 | |
| 20260506005025 | 15 | 0.0 | 0.0 | 0.00 | 0.00 | 0.00 | 78 | 1008.2 | |
| 20260506004043 | 15 | 0.0 | 0.0 | 0.00 | 0.00 | 0.00 | 77 | 1008.4 | |
| 20260506003023 | 15 | 0.0 | 0.0 | 0.00 | 0.00 | 0.00 | 76 | 1008.1 | |
| 20260506002017 | 15 | 0.0 | 0.0 | 0.00 | 0.00 | 0.00 | 76 | 1008.1 | |
| 20260506001031 | 15 | 0.0 | 0.0 | 0.00 | 0.00 | 0.00 | 76 | 1008.0 | |
| 20260506000044 | 15 | 0.0 | 0.0 | 0.00 | 0.00 | 0.00 | 78 | 1007.8 | |
| 20260505235024 | 15 | 0.0 | 0.0 | 0.00 | 0.00 | 0.00 | 76 | 1007.4 | |
| 20260505234021 | 15 | 0.0 | 0.0 | 0.00 | 0.00 | 0.00 | 76 | 1007.4 | |
| 20260505233035 | 15 | 0.0 | 0.0 | 0.00 | 0.00 | 0.00 | 76 | 1007.4 | |
| 20260505232035 | 15 | 0.0 | 0.0 | 0.00 | 0.00 | 0.00 | 76 | 1007.1 | |
| 20260505231029 | 15 | 0.0 | 0.0 | 0.00 | 0.00 | 0.00 | 76 | 1007.0 | |
| 20260505230026 | 15 | 0.0 | 0.0 | 0.00 | 0.00 | 0.00 | 75 | 1006.9 | |
| 20260505225023 | 16 | 0.0 | 0.0 | 0.00 | 0.00 | 0.00 | 74 | 1006.9 | |
| 20260505224040 | 16 | 0.0 | 0.0 | 0.00 | 0.00 | 0.00 | 73 | 1006.9 | |
| 20260505223038 | 16 | 0.0 | 0.0 | 0.00 | 0.00 | 0.00 | 73 | 1006.7 | |
| 20260505222031 | 16 | 0.0 | 0.0 | 0.00 | 0.00 | 0.00 | 71 | 1006.8 | |
| 20260505221028 | 16 | 0.0 | 0.0 | 0.00 | 0.00 | 0.00 | 71 | 1006.7 | |
| 20260505220025 | 16 | 0.0 | 0.0 | 0.00 | 0.00 | 0.00 | 70 | 1006.6 | |
| 20260505215022 | 17 | 0.0 | 0.0 | 0.00 | 0.00 | 0.00 | 69 | 1006.3 | |
| 20260505214022 | 17 | 0.0 | 0.0 | 0.00 | 0.00 | 0.00 | 67 | 1006.3 | |
| 20260505213016 | 17 | 0.0 | 0.0 | 0.00 | 0.00 | 0.00 | 66 | 1006.3 | |
| 20260505212030 | 17 | 0.0 | 0.0 | 0.00 | 0.00 | 0.00 | 65 | 1006.0 | |
| 20260505211027 | 17 | 0.0 | 0.0 | 0.00 | 0.00 | 0.00 | 64 | 1006.0 | |
| 20260505210024 | 18 | 0.0 | 0.0 | 0.00 | 0.00 | 0.00 | 63 | 1005.9 | |
| 20260505205021 | 18 | 0.0 | 0.0 | 0.00 | 0.00 | 0.00 | 63 | 1006.2 | |
| 20260505204018 | 18 | 0.0 | 0.0 | 0.00 | 0.00 | 0.00 | 61 | 1006.0 | |
| 20260505203015 | 19 | 0.0 | 0.0 | 0.00 | 0.00 | 0.00 | 60 | 1006.2 | |
| 20260505202029 | 20 | 0.0 | 0.0 | 0.00 | 0.00 | 0.00 | 58 | 1006.4 | |
| 20260505201026 | 20 | 0.0 | 0.0 | 0.00 | 0.00 | 0.00 | 55 | 1006.3 | |
| 20260505200023 | 20 | 0.0 | 0.0 | 0.00 | 0.00 | 0.00 | 55 | 1006.4 | |
| 20260505195020 | 21 | 0.0 | 0.0 | 0.00 | 0.00 | 0.00 | 51 | 1006.4 | |
| 20260505194017 | 22 | 0.0 | 0.0 | 0.00 | 0.00 | 0.00 | 50 | 1006.9 | |
| 20260505193047 | 22 | 0.0 | 0.0 | 0.00 | 0.00 | 0.00 | 50 | 1006.8 | |
| 20260505192028 | 23 | 0.0 | 0.0 | 0.00 | 0.00 | 0.00 | 50 | 1007.1 | |
| 20260505191045 | 23 | 0.0 | 0.0 | 0.00 | 0.00 | 0.00 | 50 | 1007.5 | |
| 20260505190022 | 22 | 0.0 | 0.0 | 0.00 | 0.00 | 0.00 | 50 | 1007.6 | |
| 20260505185019 | 23 | 0.0 | 0.0 | 0.00 | 0.00 | 0.00 | 49 | 1007.8 | |
| 20260505184016 | 23 | 0.0 | 0.0 | 0.00 | 0.00 | 0.00 | 48 | 1007.8 | |
| 20260505183030 | 23 | 0.0 | 0.0 | 0.00 | 0.00 | 0.00 | 48 | 1007.9 | |
| 20260505182028 | 23 | 0.0 | 0.0 | 0.00 | 0.00 | 0.00 | 49 | 1008.0 | |
| 20260505181024 | 24 | 0.0 | 0.0 | 0.00 | 0.00 | 0.00 | 48 | 1008.2 | |
| 20260505180041 | 23 | 0.0 | 0.0 | 0.00 | 0.00 | 0.00 | 50 | 1008.1 | |
| 20260505175020 | 24 | 0.0 | 0.0 | 0.00 | 0.00 | 0.00 | 48 | 1008.1 | |
| 20260505174015 | 23 | 0.0 | 0.0 | 0.00 | 0.00 | 0.00 | 50 | 1008.5 | |
| 20260505173045 | 23 | 0.0 | 0.0 | 0.00 | 0.00 | 0.00 | 50 | 1008.4 | |
| 20260505172047 | 23 | 0.0 | 0.0 | 0.00 | 0.00 | 0.00 | 49 | 1008.5 | |
| 20260505171024 | 23 | 0.0 | 0.0 | 0.00 | 0.00 | 0.00 | 50 | 1008.4 | |
| 20260505170020 | 22 | 0.0 | 0.0 | 0.00 | 0.00 | 0.00 | 50 | 1008.7 | |
| 20260505165017 | 23 | 0.0 | 0.0 | 0.00 | 0.00 | 0.00 | 50 | 1008.6 | |
| 20260505164047 | 23 | 0.0 | 0.0 | 0.00 | 0.00 | 0.00 | 50 | 1008.6 | |
| 20260505163044 | 23 | 0.0 | 0.0 | 0.00 | 0.00 | 0.00 | 50 | 1008.9 | |
| 20260505162045 | 23 | 0.0 | 0.0 | 0.00 | 0.00 | 0.00 | 50 | 1008.8 | |
| 20260505161021 | 23 | 0.0 | 0.0 | 0.00 | 0.00 | 0.00 | 50 | 1009.0 | |
| 20260505153028 | 23 | 0.0 | 0.0 | 0.00 | 0.00 | 0.00 | 48 | 1009.4 | |
| 20260505152044 | 25 | 0.0 | 0.0 | 0.00 | 0.00 | 0.00 | 45 | 1009.7 | |
| 20260505151040 | 25 | 0.0 | 0.0 | 0.00 | 0.00 | 0.00 | 44 | 1009.6 |